Location: Isolaccio
(42.0007°N, 9.2805°E)
Time: 00:05:52
(UTC+00:00)

Daily predictions for brighter satellites

Satellite Brightness Start Highest point End
(mag) Time Altitude Azimuth Time Altitude Azimuth Time Altitude Azimuth
Cosmos 2219 Rocket 4.4 01:57:06 19° E 01:57:06 19° E 02:00:14 10° ENE
USA 234 4.2 01:58:04 10° E 02:03:27 43° NE 02:03:27 43° NE
COSMOS 2428 4.4 02:14:19 27° E 02:14:19 27° E 02:18:36 10° NE
Cosmos 2322 Rocket 4.4 02:20:05 17° N 02:20:05 17° N 02:21:25 10° NNE
Cosmos 2360 Rocket 3.8 02:30:10 28° NNE 02:30:10 28° NNE 02:32:44 10° NNE
COSMOS 2455 3.6 02:31:45 47° NE 02:31:45 47° NE 02:36:01 10° NNE
ATLAS 2AS CENTAUR R/B 4.2 02:31:45 24° SSE 02:35:41 38° ESE 02:42:55 10° NE
Cosmos 2098 Rocket 4.4 02:37:08 77° NNE 02:37:08 77° NNE 02:44:02 10° N
USA 238 DEB 4.5 02:37:11 26° NNW 02:41:17 52° NE 02:48:29 10° ESE
USA 238 4.5 02:37:16 25° NNW 02:41:23 52° NE 02:48:34 10° ESE
Aureole 1 Rocket 4.1 02:59:54 48° SSE 03:01:37 67° ESE 03:06:56 10° NNE
Cosmos 2333 Rocket 2.2 03:06:30 73° SSE 03:06:51 76° ESE 03:12:32 10° NNE
Meteor 1-22 Rocket 4.2 03:01:35 10° N 03:06:58 72° E 03:12:13 10° SSE
Cosmos 2278 Rocket 3.8 03:02:01 10° N 03:07:08 33° ENE 03:12:12 10° ESE
NOSS 3-2 (A) 4.4 03:01:03 15° NNW 03:07:37 65° NE 03:15:58 10° SE
ADEOS 3.7 03:03:31 10° NNE 03:08:46 73° ESE 03:09:17 67° SSE
Cosmos 1844 4.1 03:13:26 51° S 03:13:26 51° S 03:17:40 10° SSE
USA 267 3.7 03:07:52 10° NE 03:13:59 44° NNW 03:14:41 43° NW
ADEOS II 4.3 03:15:26 10° NNW 03:15:59 12° NNW 03:15:59 12° NNW
ERBS 4.1 03:22:21 31° E 03:22:21 31° E 03:24:28 10° ENE
Cosmos 2333 4.3 03:22:16 55° NW 03:22:16 55° NW 03:27:20 10° NNE
MSX 4.1 03:16:49 10° NNE 03:22:33 66° ESE 03:28:13 10° S
SL-16 R/B 4.3 03:30:46 12° NNW 03:30:46 12° NNW 03:31:51 10° NNW
NOSS 3-2 (C) 4.5 03:22:40 10° NNW 03:30:10 62° NE 03:38:30 10° SE
CZ-2C R/B 3.4 03:25:39 10° NNE 03:30:42 49° E 03:35:41 10° S
Cosmos 2322 4.3 03:31:46 40° NW 03:31:46 40° NW 03:36:36 10° NNE
BREEZE-M DEB (TANK) 2.9 03:37:12 46° S 03:37:12 46° S 03:39:22 10° SE
Cosmos 1709 Rocket 4.1 03:36:00 47° WSW 03:37:03 52° WNW 03:43:15 10° N
Cosmos 1758 4.3 03:34:52 10° N 03:38:45 48° E 03:42:39 10° SSE
Cosmos 2184 Rocket 4.4 03:32:57 10° S 03:39:02 64° E 03:45:14 10° NNE
Cosmos 2219 Rocket 2.1 03:38:52 52° WSW 03:39:49 60° WNW 03:45:22 10° NNE
GENESIS II 4.3 03:41:18 64° NNW 03:41:18 64° NNW 03:45:02 10° NNE
NOSS 3-4 (A) 3.8 03:40:50 15° SSW 03:45:53 63° ESE 03:52:04 10° NE
NOSS 3-4 (C) 3.8 03:40:49 14° SSW 03:45:58 62° ESE 03:52:10 10° NE
Cosmos 2237 Rocket 2.6 03:41:10 10° S 03:46:45 62° ESE 03:52:22 10° NNE
USA 234 3.2 03:40:35 10° SE 03:47:04 63° SW 03:50:49 27° WNW
Cosmos 389 Rocket 3.8 03:44:52 10° SSE 03:48:03 38° E 03:51:17 10° NNE
NOSS 2-2 (D) 4.0 03:49:47 37° NNW 03:49:47 37° NNW 03:53:06 10° NNE
IDEFIX/ARIANE 42P 2.9 03:49:53 10° N 03:54:50 43° WNW 03:55:58 37° WSW
Cosmos 292 Rocket 3.7 03:52:19 10° NNW 03:57:08 84° ENE 04:01:57 10° SSE
Cosmos 1140 Rocket 4.4 03:52:16 10° S 03:57:16 50° ESE 04:02:15 10° NNE
COSMOS 2428 3.0 03:56:22 36° W 03:57:54 44° WNW 04:03:19 10° NNE
COSMO-SKYMED 1 4.4 03:54:37 10° SE 03:58:28 32° ENE 04:02:19 10° N
CZ-4B R/B 4.0 03:55:11 10° NNE 03:59:08 73° ESE 04:03:15 10° S
Cosmos 44 3.7 03:55:54 10° NNW 04:00:06 53° NE 04:04:19 10° SE
PAYLOAD A 3.8 03:55:36 10° N 04:00:25 71° WNW 04:05:22 10° SSW
Meteor 1-31 Rocket 2.8 03:57:16 10° NNE 04:01:04 78° ESE 04:04:51 10° S
Cosmos 1992 Rocket 4.4 04:01:04 34° W 04:01:45 36° WSW 04:06:27 10° SSW
Cosmos 1980 3.6 03:57:46 10° SSW 04:03:25 90° SE 04:09:06 10° NNE
H-2A R/B 2.7 03:59:39 10° N 04:03:37 47° WNW 04:04:58 34° WSW
Cosmos 614 Rocket 4.0 03:59:14 10° SSW 04:04:27 86° ESE 04:09:42 10° NNE
BREEZE-M DEB (TANK) 3.6 04:04:48 21° N 04:04:48 21° N 04:06:27 10° NE
Cosmos 1470 2.6 04:05:14 10° NNW 04:09:09 73° W 04:13:01 10° S
ATLAS 3B R/B 3.0 04:02:47 10° NNW 04:09:28 66° NE 04:16:18 10° SE
SJ-6F 4.4 04:05:32 10° N 04:09:38 60° WNW 04:13:42 10° SSW
Cosmos 1707 2.7 04:06:52 10° S 04:10:46 88° E 04:14:42 10° N
Cosmos 2360 Rocket 4.0 04:11:57 14° NW 04:12:03 14° NW 04:14:53 10° NNW
Cosmos 2074 Rocket 3.9 04:07:12 10° SSW 04:13:25 68° W 04:19:38 10° N
NOSS 0 Rocket 3.9 04:09:07 10° SW 04:15:13 66° WNW 04:21:24 10° NNE
Cosmos 1726 Rocket 4.5 04:11:19 10° N 04:15:32 49° E 04:19:43 10° SSE
COSMOS 2455 4.1 04:14:56 21° WNW 04:16:32 23° NW 04:21:13 10° N
Okean O Rocket 3.7 04:13:57 10° NE 04:17:51 30° E 04:21:42 10° SSE
Cosmos 1484 Rocket 3.6 04:14:40 10° NNE 04:18:22 52° E 04:22:06 10° S
Cosmos 1025 Rocket 3.8 04:20:29 25° WSW 04:21:36 29° WNW 04:25:21 10° NNW
CENTAUR R/B 3.2 04:14:57 10° NW 04:23:07 88° NE 04:31:52 10° SE
Cosmos 2228 3.4 04:19:07 10° N 04:23:22 65° E 04:27:34 10° SSE
OE (NEXTSAT) 4.3 04:23:10 27° WNW 04:24:56 84° SSW 04:28:27 10° ESE
ATLAS 2AS CENTAUR R/B 3.2 04:19:16 13° SW 04:26:28 58° NW 04:34:24 10° NNE
Cosmos 2058 Rocket 4.3 04:25:01 10° N 04:29:15 46° ENE 04:33:30 10° SSE
USA 238 DEB 4.3 04:25:32 10° NW 04:32:05 38° WSW 04:38:47 10° S
USA 238 4.3 04:25:39 10° NW 04:32:12 38° WSW 04:38:54 10° S
Cosmos 1023 Rocket 4.4 04:27:10 10° SSW 04:32:21 77° WNW 04:37:32 10° NNE
Cosmos 921 Rocket 3.6 04:30:03 10° NW 04:33:52 32° W 04:37:37 10° SSW
BREEZE-M DEB (TANK) 3.5 04:29:08 10° SW 04:35:52 61° SSE 04:38:47 10° ENE
Cosmos 676 Rocket 4.0 04:31:26 10° SSW 04:36:44 89° ESE 04:42:02 10° NNE
SL-16 R/B 2.8 04:32:52 10° S 04:38:25 62° ESE 04:44:01 10° NNE
Meteor 1-16 Rocket 4.2 04:33:16 10° N 04:38:36 83° E 04:43:58 10° S
SeaSat 1 4.4 04:38:21 10° NE 04:42:48 33° ESE 04:47:13 10° S
Cosmos 1726 2.8 04:39:58 10° N 04:43:36 58° E 04:47:12 10° SSE
Cosmos 1674 3.9 04:41:40 10° SSE 04:45:13 46° E 04:48:48 10° NNE
Cosmos 1943 Rocket 4.5 04:41:27 10° N 04:45:54 23° NE 04:50:19 10° ESE
SKYMED 2 3.5 04:42:02 10° S 04:46:21 78° WSW 04:50:43 10° NNW
Cosmos 1190 Rocket 4.3 04:42:06 10° SW 04:47:10 45° WNW 04:52:16 10° N
CZ-4B R/B 3.6 04:44:48 10° N 04:48:22 30° WNW 04:51:46 10° SW
FENGYUN 3A 4.3 04:43:33 10° NNE 04:48:58 63° ESE 04:54:20 10° S
Cosmos 2297 4.2 04:43:57 10° NNW 04:49:42 67° ENE 04:55:24 10° SSE
Cosmos 407 Rocket 4.0 04:45:25 10° SW 04:50:10 37° WNW 04:54:56 10° N
Cosmos 2278 Rocket 2.7 04:46:03 10° NW 04:51:14 38° WSW 04:56:23 10° S
Cosmos 2333 Rocket 3.6 04:48:34 12° W 04:51:46 19° NW 04:55:43 10° N
Meteor 2-5 Rocket 4.3 04:47:39 10° S 04:53:20 67° E 04:59:11 10° NNE
Meteor 1-4 Rocket 3.1 04:52:27 10° SW 04:55:41 34° WNW 04:58:55 10° N
Cosmos 1892 Rocket 3.6 04:51:47 10° SSW 04:56:11 63° W 05:00:35 10° N
GP-B 3.2 04:52:02 10° S 04:56:23 57° W 05:00:47 10° N
ERBS 3.8 04:55:24 12° W 04:57:45 21° NNW 05:00:27 10° NNE
Cosmos 1437 Rocket 2.6 04:59:23 10° SSW 05:03:11 76° W 05:06:58 10° N
METEOR-M 4.2 04:58:46 10° NNE 05:04:09 89° WNW 05:09:29 10° SSW
PSLV R/B 4.5 05:01:59 10° N 05:05:17 30° WNW 05:08:32 10° SW
COBE Rocket 4.2 05:03:06 10° S 05:07:54 47° W 05:12:49 10° NNW
Cosmos 1953 3.4 05:04:45 10° NW 05:08:04 25° W 05:11:20 10° SW
CZ-2C R/B 3.7 05:04:38 10° NNW 05:08:34 22° WNW 05:12:28 10° WSW
Helios 1A Rocket 3.0 05:06:41 10° N 05:10:46 59° WNW 05:14:50 10° SSW
Cosmos 2218 Rocket 4.4 05:05:03 10° S 05:11:24 73° E 05:17:44 10° NNE
